Location: Clanezzo
(45.7500°N, 9.6000°E)
Time: 04:18:57
(UTC+00:00)

Cosmos 1515 Rocket - Pass Details

Date: 12 May 2021
Orbit: 605 x 630 km, 82.5° (Epoch: 18 June)

Event Time Altitude Azimuth Distance (km) Brightness Sun altitude
Exits shadow 20:45:51 15° 199° (SSW) 1,695 5.5 -17.2°
Maximum altitude 20:49:29 66° 280° (W) 680 3.9 -17.6°
Drops below altitude 10° 20:53:52 10° 3° (N) 1,989 6.9 -18.1°
Sets 20:56:07 0° 7° (N) 2,895 7.8 -18.3°
